Regional Weather Roundup
Issued by NWS Charleston, WV

Home | Current Version | Previous Version | Text Only | Print | Product List | Glossary On
Versions: 1 2 3 4 5 6 7 8 9 10 11 12 13 14 15 16 17 18 19 20 21 22 23 24 25 26 27
000
ASUS41 KRLX 030910
RWRRLX
West Virginia Regional Weather Roundup
National Weather Service Charleston WV
500 AM EDT TUE MAY 03 2016

Note: "fair" indicates few or no clouds below 12,000 feet with no
significant weather and/or obstructions to visibility.

WVZ003-031000-
Northern Panhandle of West Virginia

CITY           SKY/WX    TMP DP  RH WIND       PRES   REMARKS
WHEELING       CLOUDY    48  43  82 N3        29.89R
$$

WVZ009-031000-
Northwest West Virginia

CITY           SKY/WX    TMP DP  RH WIND       PRES   REMARKS
PARKERSBURG      N/A    N/A N/A N/A MISG        N/A
$$

WVZ006-031000-
Western West Virginia

CITY           SKY/WX    TMP DP  RH WIND       PRES   REMARKS
HUNTINGTON     MOCLDY    58  55  90 NW3       29.87S
$$

WVZ015-031000-
West Central West Virginia

CITY           SKY/WX    TMP DP  RH WIND       PRES   REMARKS
CHARLESTON     LGT RAIN  60  57  89 SW5       29.86R
$$

WVZ022-031-031000-
North Central West Virginia

CITY           SKY/WX    TMP DP  RH WIND       PRES   REMARKS
CLARKSBURG     CLOUDY    56  54  93 CALM      29.85S
MORGANTOWN     CLOUDY    55  50  83 N3        29.87S
$$

WVZ025-035-042-045-031000-
Southern West Virginia

CITY           SKY/WX    TMP DP  RH WIND       PRES   REMARKS
BECKLEY        LGT RAIN  55  54  96 W6        29.89R
LOGAN          NOT AVBL
BLUEFIELD      CLOUDY    53  52  96 W3        29.89F
LEWISBURG      LGT RAIN  55  55  98 CALM      29.88S
$$

WVZ047-031000-
Northern Mountains of West Virginia

CITY           SKY/WX    TMP DP  RH WIND       PRES   REMARKS
ELKINS         LGT RAIN  56  54  93 CALM      29.86F
$$

WVZ052-031000-
Eastern Panhandle of West Virginia

CITY           SKY/WX    TMP DP  RH WIND       PRES   REMARKS
MARTINSBURG    CLOUDY    60  60 100 CALM      29.80F FOG
PETERSBURG     CLOUDY    62  57  84 CALM      29.84S
$$




USA.gov is the U.S. government's official web portal to all federal, state and local government web resources and services.